$Date,$Time,DM0201B,DM0203B,DM0205B,DM0207B,DM0209B
09/05/99,00:00:01,0,0,0,0,0
09/05/99,00:05:01,434,172,-23,31,971
09/05/99,00:10:01,358,172,-23,31,971
09/05/99,00:15:01,443,162,-23,31,971
09/05/99,00:20:01,409,164,-23,31,971
09/05/99,00:25:01,469,167,-23,31,971
09/05/99,00:30:01,416,175,-23,31,971
09/05/99,00:35:01,427,175,-23,31,971
09/05/99,00:40:01,416,168,-23,31,971
09/05/99,00:45:01,415,168,-23,31,971
09/05/99,00:50:01,415,168,-23,31,971
09/05/99,00:55:01,438,168,-23,31,971
09/05/99,01:00:01,430,168,-23,31,971
09/05/99,01:05:01,394,180,-23,31,971
09/05/99,01:10:01,489,180,-23,31,971
09/05/99,01:15:01,420,182,-23,31,971
09/05/99,01:20:01,414,172,-23,31,971
09/05/99,01:25:01,451,182,-23,33,971
09/05/99,01:30:01,480,172,-23,33,971
09/05/99,01:35:01,393,172,-23,33,971
09/05/99,01:40:01,465,173,-23,31,971
09/05/99,01:45:01,457,173,-23,29,971
09/05/99,01:50:01,381,183,-23,29,971
09/05/99,01:55:01,434,183,-23,29,971
09/05/99,02:00:01,374,193,-23,27,971
09/05/99,02:05:01,308,181,-23,27,971
09/05/99,02:10:01,261,180,-23,25,971
09/05/99,02:15:01,221,180,-23,25,971
09/05/99,02:20:01,282,169,-23,25,971
09/05/99,02:25:01,365,169,-23,25,971
09/05/99,02:30:01,356,182,-23,25,971
09/05/99,02:35:01,316,171,-23,23,971
09/05/99,02:40:01,283,181,-23,23,971
09/05/99,02:45:01,260,192,-23,23,971
09/05/99,02:50:01,247,192,-23,23,971
09/05/99,02:55:01,211,187,-23,21,971
09/05/99,03:00:01,248,197,-23,21,971
09/05/99,03:05:01,269,197,-23,21,971
09/05/99,03:10:01,270,197,-23,21,971
09/05/99,03:15:01,257,197,-23,19,971
09/05/99,03:20:01,251,208,-23,19,971
09/05/99,03:25:01,214,208,-23,19,971
09/05/99,03:30:01,197,208,-23,17,971
09/05/99,03:35:01,184,197,-23,17,971
09/05/99,03:40:01,90,183,-23,17,971
09/05/99,03:45:01,44,37,-23,15,971
09/05/99,03:50:01,119,21,-23,15,971
09/05/99,03:55:01,4,5,-23,13,971
09/05/99,04:00:01,65,349,-25,11,971
09/05/99,04:05:01,105,6,-25,11,971
09/05/99,04:10:01,65,5,-25,11,971
09/05/99,04:15:01,54,6,-25,9,971
09/05/99,04:20:01,60,14,-25,9,971
09/05/99,04:25:01,76,25,-25,9,971
09/05/99,04:30:01,64,31,-25,7,971
09/05/99,04:35:01,93,18,-25,7,971
09/05/99,04:40:01,65,20,-25,5,971
09/05/99,04:45:01,84,19,-25,5,971
09/05/99,04:50:01,57,19,-25,5,971
09/05/99,04:55:01,48,10,-25,3,971
09/05/99,05:00:01,25,5,-25,3,971
09/05/99,05:05:01,39,22,-25,3,971
09/05/99,05:10:01,29,32,-25,3,971
09/05/99,05:15:01,24,53,-25,3,971
09/05/99,05:20:01,2,53,-25,3,971
09/05/99,05:25:01,4,61,-25,3,971
09/05/99,05:30:01,24,134,-25,1,971
09/05/99,05:35:01,10,201,-25,1,971
09/05/99,05:40:01,56,180,-25,1,971
09/05/99,05:45:01,40,158,-25,1,971
09/05/99,05:50:01,43,186,-25,1,971
09/05/99,05:55:01,45,166,-25,1,971
09/05/99,06:00:01,74,170,-25,1,971
09/05/99,06:05:01,97,170,-25,1,971
09/05/99,06:10:01,88,190,-25,1,971
09/05/99,06:15:01,110,190,-25,1,971
09/05/99,06:20:01,131,179,-25,1,971
09/05/99,06:25:01,118,179,-25,1,971
09/05/99,06:30:01,89,179,-25,1,971
09/05/99,06:35:01,81,190,-25,1,971
09/05/99,06:40:01,75,208,-25,1,971
09/05/99,06:45:01,54,209,-25,1,971
09/05/99,06:50:01,89,204,-25,1,971
09/05/99,06:55:01,59,214,-25,1,971
09/05/99,07:00:01,75,213,-25,1,971
09/05/99,07:05:01,84,206,-25,1,971
09/05/99,07:10:01,74,206,-25,1,971
09/05/99,07:15:01,81,217,-25,1,971
09/05/99,07:20:01,82,209,-25,1,971
09/05/99,07:25:01,104,210,-25,1,971
09/05/99,07:30:01,135,196,-25,1,971
09/05/99,07:35:01,166,196,-25,1,971
09/05/99,07:40:01,133,199,-25,1,971
09/05/99,07:45:01,147,187,-25,1,971
09/05/99,07:50:01,148,187,-25,1,971
09/05/99,07:55:01,151,187,-25,1,971
09/05/99,08:00:01,145,194,-25,1,971
09/05/99,08:05:01,89,194,-25,1,971
09/05/99,08:10:01,95,207,-25,1,971
09/05/99,08:15:01,104,192,-25,1,971
09/05/99,08:20:01,149,193,-25,1,971
09/05/99,08:25:01,140,193,-25,1,971
09/05/99,08:30:01,126,183,-25,1,971
09/05/99,08:35:01,125,190,-25,1,971
09/05/99,08:40:01,132,187,-25,1,971
09/05/99,08:45:01,115,186,-25,1,971
09/05/99,08:50:01,107,196,-25,1,971
09/05/99,08:55:01,114,196,-25,1,971
09/05/99,09:00:01,104,196,-25,1,971
09/05/99,09:05:01,109,184,-25,1,971
09/05/99,09:10:01,97,184,-25,1,971
09/05/99,09:15:01,85,184,-25,1,971
09/05/99,09:20:01,63,184,-25,1,971
09/05/99,09:25:01,77,184,-25,1,971
09/05/99,09:30:01,77,184,-25,1,971
09/05/99,09:35:01,66,184,-25,1,971
09/05/99,09:40:01,56,173,-25,1,971
09/05/99,09:45:01,46,173,-25,1,971
09/05/99,09:50:01,63,173,-25,1,971
09/05/99,09:55:01,73,173,-25,1,971
09/05/99,10:00:01,50,173,-25,1,971
09/05/99,10:05:01,60,173,-25,1,971
09/05/99,10:10:01,71,183,-25,1,971
09/05/99,10:15:01,48,183,-25,1,971
09/05/99,10:20:01,48,183,-25,1,971
09/05/99,10:25:01,33,183,-25,1,971
09/05/99,10:30:01,54,183,-25,1,971
09/05/99,10:35:01,32,183,-25,1,971
09/05/99,10:40:01,42,183,-25,1,971
09/05/99,10:45:01,44,183,-25,1,971
09/05/99,10:50:01,34,183,-25,1,971
09/05/99,10:55:01,44,183,-25,1,971
09/05/99,11:00:01,33,183,-25,1,971
09/05/99,11:05:01,33,183,-25,1,971
09/05/99,11:10:01,33,183,-25,1,971
09/05/99,11:15:01,10,75,-25,1,971
09/05/99,11:20:01,17,93,-25,1,971
09/05/99,11:25:01,22,80,-25,1,971
09/05/99,11:30:01,27,93,-25,1,971
09/05/99,11:35:01,25,93,-25,1,971
09/05/99,11:40:01,14,93,-25,1,971
09/05/99,11:45:01,7,79,-25,1,971
09/05/99,11:50:01,7,79,-25,1,969
09/05/99,11:55:01,7,79,-25,1,969
09/05/99,12:00:01,7,348,-25,1,969
09/05/99,12:05:01,7,282,-25,1,969
09/05/99,12:10:01,30,245,-25,1,969
09/05/99,12:15:01,18,245,-25,1,969
09/05/99,12:20:01,18,245,-25,1,969
09/05/99,12:25:01,28,245,-25,1,969
09/05/99,12:30:01,5,225,-25,1,969
09/05/99,12:35:01,15,213,-25,1,969
09/05/99,12:40:01,3,213,-25,1,969
09/05/99,12:45:01,3,213,-25,1,969
09/05/99,12:50:01,3,213,-25,1,969
09/05/99,12:55:01,3,269,-25,1,969
09/05/99,13:00:01,3,224,-25,1,969
09/05/99,13:05:01,3,224,-25,1,969
09/05/99,13:10:01,3,224,-25,1,969
09/05/99,13:15:01,3,224,-25,1,969
09/05/99,13:20:01,3,213,-25,1,969
09/05/99,13:25:01,28,102,-25,1,969
09/05/99,13:30:01,40,104,-25,1,969
09/05/99,13:35:01,6,61,-25,1,969
09/05/99,13:40:01,11,96,-25,1,969
09/05/99,13:45:01,14,124,-25,1,969
09/05/99,13:50:01,4,149,-25,1,969
09/05/99,13:55:01,27,215,-25,1,969
09/05/99,14:00:01,17,237,-25,1,969
09/05/99,14:05:01,22,237,-25,1,969
09/05/99,14:10:01,8,217,-25,1,969
09/05/99,14:15:01,8,175,-25,1,969
09/05/99,14:20:01,8,175,-25,1,969
09/05/99,14:25:01,33,195,-25,1,969
09/05/99,14:30:01,46,173,-25,1,969
09/05/99,14:35:01,23,200,-25,1,969
09/05/99,14:40:01,37,203,-25,1,969
09/05/99,14:45:01,8,180,-25,1,969
09/05/99,14:50:01,8,180,-25,1,969
09/05/99,14:55:01,8,49,-25,1,969
09/05/99,15:00:01,5,120,-25,1,969
09/05/99,15:05:01,5,86,-25,1,969
09/05/99,15:10:01,5,34,-25,1,969
09/05/99,15:15:01,5,22,-25,1,969
09/05/99,15:20:01,5,124,-25,1,969
09/05/99,15:25:01,5,124,-25,1,969
09/05/99,15:30:01,5,124,-25,1,969
09/05/99,15:35:01,5,179,-25,1,969
09/05/99,15:40:01,17,202,-25,1,969
09/05/99,15:45:01,34,182,-25,1,969
09/05/99,15:50:01,42,193,-25,1,969
09/05/99,15:55:01,23,193,-25,1,969
09/05/99,16:00:01,38,181,-25,1,969
09/05/99,16:05:01,30,181,-25,1,969
09/05/99,16:10:01,18,181,-25,1,969
09/05/99,16:15:01,10,181,-25,1,969
09/05/99,16:20:01,65,194,-25,1,969
09/05/99,16:25:01,75,210,-25,1,969
09/05/99,16:30:01,62,175,-25,1,969
09/05/99,16:35:01,65,174,-25,1,969
09/05/99,16:40:01,74,174,-25,1,969
09/05/99,16:45:01,71,179,-25,1,969
09/05/99,16:50:01,78,176,-25,1,969
09/05/99,16:55:01,80,164,-25,1,969
09/05/99,17:00:01,60,174,-25,1,969
09/05/99,17:05:01,80,174,-25,1,969
09/05/99,17:10:01,64,174,-25,1,967
09/05/99,17:15:01,61,174,-25,1,967
09/05/99,17:20:01,66,184,-25,1,967
09/05/99,17:25:01,96,184,-25,1,967
09/05/99,17:30:01,97,174,-25,1,967
09/05/99,17:35:01,98,174,-25,1,967
09/05/99,17:40:01,112,170,-25,1,967
09/05/99,17:45:01,120,182,-25,1,967
09/05/99,17:50:01,136,191,-25,1,967
09/05/99,17:55:01,149,181,-25,1,967
09/05/99,18:00:01,148,181,-25,1,967
09/05/99,18:05:01,179,181,-25,1,967
09/05/99,18:10:01,143,183,-25,1,967
09/05/99,18:15:01,131,171,-25,1,967
09/05/99,18:20:01,138,179,-25,1,967
09/05/99,18:25:01,139,181,-25,1,967
09/05/99,18:30:01,175,181,-25,1,967
09/05/99,18:35:01,120,181,-25,1,967
09/05/99,18:40:01,182,171,-25,1,967
09/05/99,18:45:01,182,181,-25,1,967
09/05/99,18:50:01,173,181,-25,1,967
09/05/99,18:55:01,160,181,-25,1,967
09/05/99,19:00:01,147,169,-25,1,967
09/05/99,19:05:01,183,172,-25,1,967
09/05/99,19:10:01,189,172,-25,1,967
09/05/99,19:15:01,198,181,-25,1,967
09/05/99,19:20:01,169,179,-25,1,967
09/05/99,19:25:01,169,169,-25,1,967
09/05/99,19:30:01,139,179,-25,1,967
09/05/99,19:35:01,204,175,-25,1,967
09/05/99,19:40:01,223,175,-25,1,967
09/05/99,19:45:01,255,186,-25,1,967
09/05/99,19:50:01,242,186,-25,1,967
09/05/99,19:55:01,269,186,-25,1,967
09/05/99,20:00:01,305,176,-25,1,967
09/05/99,20:05:01,343,176,-25,1,967
09/05/99,20:10:01,272,176,-25,1,967
09/05/99,20:15:01,282,176,-25,1,967
09/05/99,20:20:01,254,176,-25,1,967
09/05/99,20:25:01,264,165,-25,1,967
09/05/99,20:30:01,292,176,-25,1,967
09/05/99,20:35:01,390,176,-25,1,967
09/05/99,20:40:01,333,166,-25,1,967
09/05/99,20:45:01,321,166,-25,1,967
09/05/99,20:50:01,348,166,-25,1,967
09/05/99,20:55:01,356,166,-25,1,967
09/05/99,21:00:01,381,166,-25,1,967
09/05/99,21:05:01,354,166,-25,1,967
09/05/99,21:10:01,425,178,-25,1,967
09/05/99,21:15:01,395,178,-25,3,965
09/05/99,21:20:01,386,177,-25,3,965
09/05/99,21:25:01,342,166,-25,3,965
09/05/99,21:30:01,316,166,-25,5,965
09/05/99,21:35:01,396,166,-25,5,965
09/05/99,21:40:01,362,166,-25,7,965
09/05/99,21:45:01,461,166,-25,7,965
09/05/99,21:50:01,456,166,-25,7,965
09/05/99,21:55:01,450,166,-25,9,965
09/05/99,22:00:01,518,166,-25,9,965
09/05/99,22:05:01,506,166,-25,9,965
09/05/99,22:10:01,546,165,-25,11,965
09/05/99,22:15:01,509,165,-25,11,965
09/05/99,22:20:01,502,165,-25,11,965
09/05/99,22:25:01,538,169,-25,11,965
09/05/99,22:30:01,542,169,-25,11,965
09/05/99,22:35:01,530,169,-25,11,965
09/05/99,22:40:01,576,169,-25,13,965
09/05/99,22:45:01,518,169,-25,13,965
09/05/99,22:50:01,518,169,-25,15,965
09/05/99,22:55:01,525,179,-25,17,965
09/05/99,23:00:01,563,180,-25,17,965
09/05/99,23:05:01,524,169,-25,19,965
09/05/99,23:10:01,539,167,-25,19,965
09/05/99,23:15:01,490,167,-25,19,965
09/05/99,23:20:01,514,167,-25,19,965
09/05/99,23:25:01,515,175,-25,21,965
09/05/99,23:30:01,510,176,-25,23,965
09/05/99,23:35:01,552,176,-25,23,965
09/05/99,23:40:01,533,174,-25,25,965
09/05/99,23:45:01,515,174,-25,25,965
09/05/99,23:50:01,622,174,-25,25,965
09/05/99,23:55:01,504,174,-25,27,965
09/06/99,00:00:01,545,166,-25,27,965
